{"data":{"norad_id":55955,"intl_designator":"2023-037AT","name":"STARLINK-5878","alt_names":[],"object_type":"PAYLOAD","status":"ACTIVE","operator":null,"country":"US","launch_date":"2023-03-17","launch_site_code":"AFWTR","launch_vehicle":null,"mission":null,"orbit_class":"UNKNOWN","rcs_meters":null,"size_class":null,"mass_kg":null,"dimensions":null,"purposes":["comms"],"wikipedia_slug":null,"has_3d_model":false,"image_url":null,"decayed_at":null,"tle_current":{"epoch":"2026-05-25T04:56:33.381888Z","epoch_age_seconds":61238,"freshness":"FRESH","line1":"1 55955U 23037AT  26145.20594192  .00004571  00000+0  39069-3 0  9990","line2":"2 55955  70.0003  71.5713 0003068 267.5503  92.5305 14.98327517175936","mean_motion":14.98327517,"eccentricity":0.0003068,"inclination_deg":70.0003,"raan_deg":71.5713,"arg_perigee_deg":267.5503,"mean_anomaly_deg":92.5305,"bstar":0.00039069,"rev_number":17593,"period_min":96.107158392393,"perigee_km":569.931247893,"apogee_km":574.1958909624,"semimajor_km":6950.2005694277,"source":"CELESTRAK","updated_at":"2026-05-25T13:38:17.918962Z"}}}